Find STARLINK-37232

NORAD ID: 799500954 Int'l Des: 2026-132H Constellation: starlink operational

Aktuelle Ansicht

3D-Globus wird geladen...

About STARLINK-37232

STARLINK-37232 (NORAD 799500954) is a starlink constellation satellite launched Jun 8, 2026

Über STARLINK-37232

Beschreibung wird geladen...

Nächste Überflüge

Passes for default location (London). Set your location on the main map for personalized predictions.

Höhenverlauf

Loading altitude history...

Zweizeiliger Elementsatz

1 99999C 2026132H 26163.66159721 .04409100 00000-0 443390-3 0 1633
2 99999 53.1630 346.6322 0010481 279.4980 165.4823 16.08041101 16
Epoch: 12. Juni 2026 • Age: 8 hours